This is the latest recevied weather packets stored in our database for station/object NO3U. If no packets are shown the sender has not sent any weather packets the latest 1 day(s).
| Time | Temp. | Humidity | Pressure | Rain* | Wind** | Luminosity | Snow |
|---|---|---|---|---|---|---|---|
| 1778077435 | 9.44° C | 99% | 1009.5 hPa | 0 mm | - | 181 W/m² | - |
| 1778077133 | 10° C | 99% | 1009.3 hPa | 0 mm | - | 167 W/m² | - |
| 1778076225 | 9.44° C | 99% | 1008.9 hPa | 0 mm | - | 183 W/m² | - |
| 1778075619 | 8.89° C | 99% | 1008.9 hPa | 0 mm | - | 138 W/m² | - |
| 1778075012 | 9.44° C | 99% | 1009.2 hPa | 0 mm | - | 112 W/m² | - |
| 1778072891 | 8.89° C | 99% | 1009 hPa | 1.78 mm | - | 15 W/m² | - |
| 1778071378 | 8.89° C | 99% | 1007.9 hPa | 0 mm | - | 19 W/m² | - |
| 1778070774 | 8.89° C | 99% | 1008 hPa | 1.27 mm | - | 17 W/m² | - |
| 1778069866 | 8.89° C | 99% | 1007.9 hPa | 3.05 mm | - | 32 W/m² | - |
| 1778068353 | 8.89° C | 99% | 1008 hPa | 0 mm | - | 11 W/m² | - |
| 1778066234 | 9.44° C | 99% | 1007.4 hPa | 0 mm | - | 7 W/m² | - |
| 1778065023 | 10° C | 99% | 1007.4 hPa | 0 mm | - | 2 W/m² | - |
| 1778064418 | 10° C | 99% | 1006.9 hPa | 1.27 mm | - | 1 W/m² | - |
| 1778064115 | 10.56° C | 99% | 1006.8 hPa | 1.78 mm | - | 2 W/m² | - |
| 1778063812 | 10.56° C | 99% | 1007.1 hPa | 3.56 mm | - | 1 W/m² | - |
| 1778062904 | 11.11° C | 99% | 1006.8 hPa | 3.05 mm | - | 0 W/m² | - |
| 1778062298 | 11.11° C | 99% | 1006.6 hPa | 4.32 mm | - | 0 W/m² | - |
| 1778061694 | 11.67° C | 99% | 1006.4 hPa | 0 mm | - | 0 W/m² | - |
| 1778061089 | 13.33° C | 99% | 1006.2 hPa | 1.27 mm | - | 0 W/m² | - |
| 1778060786 | 13.33° C | 99% | 1006.1 hPa | 1.27 mm | - | 0 W/m² | - |
| 1778060484 | 13.33° C | 99% | 1006 hPa | 0 mm | - | 0 W/m² | - |
| 1778059879 | 13.33° C | 99% | 1006 hPa | 0 mm | - | 0 W/m² | - |
| 1778059577 | 13.33° C | 99% | 1006 hPa | 0 mm | - | 0 W/m² | - |
| 1778058669 | 13.33° C | 99% | 1006.3 hPa | 3.05 mm | - | 0 W/m² | - |
| 1778058367 | 13.33° C | 99% | 1006.3 hPa | 3.56 mm | - | 0 W/m² | - |
* Rain latest hour (hover to see other rain measurements)
** Current wind speed in m/s (hover to see current wind gust speed)